Regional Weather Roundup
Issued by NWS

Home | Current Version | Previous Version | Text Only | Print | Product List | Glossary Off
Versions: 1 2 3 4 5 6 7 8 9 10 11 12 13 14 15 16 17 18 19 20 21 22 23 24 25 26 27 28 29 30 31 32 33 34 35 36 37 38 39 40 41 42 43 44 45 46 47 48 49 50

000
ASUS45 KCYS 301910
RWRWY

WYOMING REGIONAL WEATHER ROUNDUP
NATIONAL WEATHER SERVICE CHEYENNE WY
100 PM MDT THU JUL 30 2015

NOTE:  "FAIR" INDICATES FEW OR NO CLOUDS BELOW 12,000 FEET
WITH NO SIGNIFICANT WEATHER AND/OR OBSTRUCTIONS TO VISIBILITY.

WYZ001-302000-
...YELLOWSTONE NATIONAL PARK...

CITY           SKY/WX    TMP DP  RH WIND       PRES   REMARKS
LK YELLOWSTONE   N/A     67  41  38 VRB5      30.56F
W YELLOWSTONE  NOT AVBL

$$
WYZ002>013-054>058-071-098>099-302000-
...NORTHERN WYOMING...

CITY           SKY/WX    TMP DP  RH WIND       PRES   REMARKS
JACKSON        SUNNY     73  37  27 CALM      30.45F
CODY           SUNNY     81  34  18 E10G17    30.34F
GREYBULL       SUNNY     84  32  15 VRB6      30.28F
WORLAND        SUNNY     83  32  16 VRB3      30.31F
SHERIDAN       SUNNY     85  36  17 SW3       30.29F
BUFFALO        SUNNY     82  35  18 SE7       30.35F
GILLETTE       SUNNY     83  36  18 S10G16    30.31F
HULETT         FAIR      81  37  21 NW10      30.32S
NEWCASTLE      FAIR      82  32  16 W6        30.31F

$$
WYZ014>020-022>026-101>103-302000-
...CENTRAL WYOMING...

CITY           SKY/WX    TMP DP  RH WIND       PRES   REMARKS
BIG PINEY      SUNNY     74  23  15 SW9       30.49F
PINEDALE       SUNNY     75  19  12 SE5       30.49F
DUBOIS         FAIR      73  18  12 CALM      30.47F
LANDER         SUNNY     80  31  16 NE3       30.37F
RIVERTON       SUNNY     79  29  16 VRB6      30.39F
CASPER         SUNNY     83  27  13 VRB3      30.36F
DOUGLAS        SUNNY     85  40  20 E6        30.34F

$$
WYZ021-027>030-104>119-302000-
...SOUTHERN WYOMING...

CITY           SKY/WX    TMP DP  RH WIND       PRES   REMARKS
EVANSTON       SUNNY     76  19  11 VRB6      30.49F
KEMMERER       SUNNY     77  21  12 NE5       30.49F
FORT BRIDGER   SUNNY     79  23  12 N7        30.50F
ROCK SPRINGS   SUNNY     77  27  15 SW7       30.45F
DIXON          FAIR      84  18   8 W5        30.45S
RAWLINS        SUNNY     81  18   9 VRB7      30.44F
SARATOGA       FAIR      81  21  11 N6        30.47F
LARAMIE        SUNNY     79  24  13 NE13      30.47F
CHEYENNE       SUNNY     81  45  28 VRB6G18   30.40F
TORRINGTON     SUNNY     84  50  30 VRB7      30.29F
PINE BLUFFS    FAIR      82  48  30 E7        30.35F

$$



USA.gov is the U.S. government's official web portal to all federal, state and local government web resources and services.